星链-32370 (STARLINK-32370)

导读

STARLINK-32370是美国太空探索技术公司(SpaceX)于2024年10月23日发射的星链(Starlink)卫星,属于星链互联网星座的一员。星链项目旨在通过低地球轨道星座组网,为全球提供高速宽带互联网服务,尤其覆盖偏远和基础设施薄弱区域。该卫星入轨后,将和其他星链卫星协同,扩展星座服务能力,推进全球互联覆盖目标。

基本信息
目录编号:
61635
目录名称:
STARLINK-32370
国际标识:
2024-191Q
轨道中心:
EARTH
卫星名称:
星链-32370
卫星全名:
星链-32370 (STARLINK-32370)
卫星状态:
在轨 (已飞行688 天)
发射日期:
2024-10-23 UTC
国别 :
美国 (US)
星等 :
--
该卫星已列入 空间交会检测服务 Space Conjunction Data Service (SCDS) ,当前飞行风险评估等级: 无高风险
轨道信息
数据来源 国际轨道数据 AOE轨道数据
星历时间 2026-09-11T13:09:14+0800
11小时前
查看轨道信息
2026-09-09T22:00:00+0800
2天前
查看轨道信息
半长轴 6861.182km 6861.13km
偏心率 0.0001225 0.0001509
轨道倾角 43.002° 43.002°
近地点辐角 273.155° 264.693°
升交点赤经 186.448° 195.667°
平近点角 86.916° 113.267°
近地点 482.204km 481.957km
远地点 483.886km 484.029km
周期 94.267分钟 94.266分钟
每日圈数 15.275816 15.275988
详细信息
固有亮度:
5
最大亮度:
2.5
卫星平台:
Starlink V1.0
覆盖范围:
全球
运营商:
太空探索技术公司
运营商所在国:
美国
制造商(研发单位):
太空探索技术公司
制造商所在国:
美国
使用方式:
暂无
卫星简介
Starlink 计划是 SpaceX 推出的全球卫星互联网项目,通过发射低轨道卫星,为全球尤其是偏远地区提供高速、低延迟的互联网服务。自 2019 年起,Starlink 已部署数千颗卫星,旨在缩小全球数字鸿沟,推动互联网普及。该项目还为军事、航空等行业提供通信支持,带来广泛经济效益。
2D轨道图
3D轨道图
轨道高度分析图
轨道倾角分析图
轨道综合分析图
查看轨道综合分析图
交会数据列表
事件ID 空间交会对象 最接近时刻(TCA) 交会距离 交会风险概率(CRP) 交会风险指数(CRI) 操作
CDM_260911-102106-163506-634421
2026-09-11T
10:21:00+0000
0.628 km
远距离
5.771806E-5 中风险 0.7
CDM_260910-223406-163506-634421
2026-09-10T
22:34:50+0000
0.631 km
远距离
5.69386E-5 中风险 0.7
CDM_260912-062106-163506-364221
2026-09-12T
06:21:14+0000
1.002 km
极远距离
2.049727E-5 中风险 0.61
CDM_260912-024506-163506-712721
2026-09-12T
02:45:17+0000
0.694 km
远距离
1.908632E-5 中风险 0.61
CDM_260913-103406-163506-400421
2026-09-13T
10:34:48+0000
1.092 km
极远距离
1.53834E-5 中风险 0.59
CDM_260912-050606-163506-712721
2026-09-12T
05:06:31+0000
0.756 km
远距离
1.438196E-5 中风险 0.58
CDM_260913-002406-163506-453021
2026-09-13T
00:24:46+0000
1.285 km
极远距离
1.10413E-5 中风险 0.56
CDM_260910-210006-163506-634423
2026-09-10T
21:00:41+0000
1.224 km
极远距离
6.362995E-6 低风险 0.51
CDM_260912-233706-163506-453021
2026-09-12T
23:37:39+0000
1.768 km
极远距离
3.920964E-6 低风险 0.47
CDM_260912-194106-163506-364221
2026-09-12T
19:41:32+0000
1.684 km
极远距离
3.593007E-6 低风险 0.46
与全量物体交会距离演化趋势
与全量物体交会风险概率演化趋势